Presure
167 175 160 165 182 190 178 179 185 195 166 182 188 184 197 191 141 151 145 135 140 132 178 140 153 160 156 153 144 168 154 166 128 151 165 156 147 116 180 146 161 149 159 150 146 148 161 123 163 156 238 136 149 190
177 179 160 169 157 165 164 181 184 199 196 166 165 188 191 189 166 137 194 198 186 108 132 133 144 146 189 159 180 157 152 162 147 128 151 169 162 155 175 193 199 119 130 125 117 192 205 175 114 185 130 143 174 150
178 179 178 169 169 176 176 161 174 179 229 164 172 175 120 128 169 148 189 182 183 156 186 145 182 189 176 177 189 172 145 183 190 182 112 161 168 186 179 186 190 153 139 145 149 162 191 136 112 189 125 141 206 226
177 199 178 181 186 173 175 179 158 154 161 170 170 166 171 162 170 172 171 143 161 135 144 165 147 131 175 156 162 177 134 145 123 156 198 169 133 136 178 185 157 141 102 131 114 181 212 96 164 186 206 157 150 222
167 169 185 188 179 182 186 170 186 184 171 169 170 186 171 178 179 151 175 171 188 134 173 173 152 160 166 139 176 172 107 113 140 188 159 168 195 196 196 183 165 115 155 134 232 227 105 238 206 211 156 214 220 182
175 178 180 181 185 173 173 187 166 167 176 184 123 172 183 176 188 115 180 179 145 167 189 173 183 203 77 85 100 197 189 126 213 205 207 183 182 203 172 82 201 95 183 192 182 250 233 218 208 246 128 118 118 137
192 183 186 195 191 195 190 206 211 124 195 181 193 179 172 196 194 197 181 197 171 203 211 192 203 186 174 79 105 192 125 200 205 191 165 172 112 183 208 169 188 191 222 233 246 252 228 191 208 108 233 121 119 136
202 192 206 204 198 201 203 203 205 209 196 186 203 186 197 195 184 168 179 196 200 187 182 197 150 180 126 195 197 182 194 214 222 200 190 189 144 208 119 206 213 224 245 249 256 241 225 206 122 153 143 205 206 399
196 193 207 209 203 193 180 202 206 206 192 190 199 196 198 203 192 222 185 201 201 192 201 194 196 207 210 183 194 204 154 205 199 205 216 198 227 203 163 176 228 229 266 264 211 145 141 101 108 94 120 279 303 290
207 213 205 189 206 192 192 186 203 174 184 189 184 176 187 209 185 187 188 200 182 184 212 207 184 201 207 185 186 207 214 226 197 199 207 226 233 183 125 121 109 248 180 256 131 115 114 101 133 122 289 327 372 351
191 207 210 198 207 206 205 187 209 204 195 205 199 212 194 212 206 201 194 201 196 112 109 210 188 160 209 203 214 224 219 210 234 218 209 194 160 212 96 100 103 101 102 263 89 269 198 291 354 366 382 388 355 244
207 210 206 196 196 211 201 193 200 205 204 205 196 200 194 194 178 198 197 192 193 196 189 131 115 79 156 213 140 236 226 229 235 223 232 99 176 95 93 121 203 85 137 250 233 260 335 265 256 237 313 346 240 341
199 199 197 202 200 206 211 206 206 197 202 188 206 205 207 201 198 193 104 198 101 108 99 211 198 223 225 232 238 238 237 252 236 229 265 255 211 265 169 232 236 233 156 258 381 371 298 413 383 343 316 342 340 339
213 205 205 204 200 203 207 220 219 222 219 216 213 216 212 214 206 84 100 218 210 252 241 221 223 283 252 254 285 290 276 278 260 213 233 228 94 105 107 221 271 103 358 376 274 252 339 364 363 377 353 337 313 328
216 214 211 220 217 207 234 218 222 242 223 233 241 245 242 250 234 248 259 258 251 265 247 273 262 290 281 275 275 276 277 273 276 276 278 280 262 266 272 180 323 257 260 346 351 343 352 375 371 346 330 322 322 313
240 271 272 275 280 286 277 285 252 294 292 265 269 276 219 290 279 151 87 88 270 265 269 280 273 275 237 243 236 252 261 262 280 290 293 266 336 340 316 278 284 313 279 333 322 344 336 348 333 325 312 323 309 302
350 313 276 302 299 301 244 264 270 241 307 269 236 236 243 101 91 85 101 260 258 279 270 272 274 241 227 234 291 355 238 247 321 332 349 365 367 309 366 367 395 365 335 377 365 319 310 311 311 317 312 310 288 290
147 286 309 308 364 368 322 308 307 287 290 350 346 307 267 294 159 319 310 317 360 368 314 252 350 320 330 329 318 316 371 378 377 376 372 364 360 365 358 341 342 357 351 338 333 305 263 269 281 301 299 285 266 283
368 345 349 313 296 298 305 329 329 283 330 322 300 350 351 329 346 340 202 195 327 327 329 331 337 341 333 340 341 358 359 359 365 370 376 375 360 353 339 336 338 306 301 269 260 247 250 260 265 273 286 254 261 251
357 356 351 351 351 350 354 358 363 362 363 359 350 345 344 341 331 323 324 325 327 332 333 329 329 327 332 341 334 340 345 346 342 330 330 313 313 348 433 511 507 519 498 473 460 447 416 378 262 260 251 238 238 244
332 329 328 331 330 336 339 340 344 347 348 350 352 349 344 340 336 333 329 328 328 335 334 332 333 311 306 312 309 315 327 437 458 469 482 478 471 460 457 465 472 466 464 459 437 407 403 385 411 255 251 247 240 238
436 513 508 364 478 477 440 442 452 466 468 469 452 367 445 418 442 423 304 302 333 427 351 452 453 453 432 425 418 416 418 425 462 449 443 438 439 435 427 427 428 420 406 407 413 401 392 394 396 392 368 418 287 244
454 458 469 467 453 451 450 446 438 441 418 460 458 423 425 417 408 404 390 401 404 402 394 436 428 422 405 398 400 406 403 442 430 421 415 410 406 408 399 391 392 394 393 391 397 395 390 383 381 389 378 393 371 354
418 438 432 429 424 412 418 430 425 419 428 416 416 413 402 397 388 378 386 396 397 416 442 412 391 386 393 397 391 421 422 416 404 392 392 390 382 382 380 373 372 381 367 383 384 382 378 372 376 378 411 379 322 336
387 395 392 383 383 368 384 393 397 403 393 382 372 379 382 372 374 384 397 387 431 420 395 396 400 398 402 420 406 397 389 385 372 368 377 378 371 367 370 377 371 372 374 368 369 371 372 368 370 380 410 372 324 336
375 374 368 367 356 366 387 394 384 376 379 380 378 371 365 372 377 393 420 425 409 393 388 386 393 405 395 382 371 369 369 369 363 361 361 364 365 359 374 374 364 363 362 352 353 358 357 360 372 392 394 364 347 327
387 392 392 386 387 386 392 387 382 373 369 371 377 379 402 416 413 416 391 387 385 381 390 383 374 374 366 361 360 358 353 354 355 354 356 360 364 361 363 371 362 355 356 354 355 358 360 367 380 362 379 371 313 330
351 384 398 405 394 395 392 348 371 375 370 373 352 373 398 400 406 382 386 392 366 364 362 359 355 354 353 352 353 355 352 347 344 343 341 344 346 347 351 350 348 350 351 367 361 357 361 381 372 376 370 374 351 335
358 347 345 343 347 349 356 361 362 377 373 357 360 360 369 366 380 365 361 358 353 350 351 352 350 347 345 341 335 333 331 331 330 332 333 334 338 337 333 342 332 343 358 348 358 360 358 375 360 362 363 368 348 322
280 338 362 353 345 340 335 336 333 337 340 341 339 337 335 340 342 342 340 340 340 337 337 335 333 330 328 329 328 321 323 325 326 328 330 334 335 339 339 343 345 332 358 347 329 364 359 369 356 345 359 333 355 330
324 287 276 283 308 339 366 366 356 343 337 333 331 329 328 331 334 329 329 327 325 326 326 323 320 322 322 323 323 328 327 324 324 323 320 320 330 354 359 375 376 376 380 357 356 357 363 359 359 350 350 356 346 342
322 337 335 329 303 281 284 293 321 338 361 376 382 351 338 332 325 321 321 327 333 331 328 328 326 327 322 323 322 321 324 348 358 357 362 368 368 364 359 357 361 368 374 376 385 361 356 376 356 346 351 346 341 334
330 334 354 362 346 335 334 302 282 271 278 300 321 347 360 369 372 363 351 341 338 334 330 328 326 329 337 348 352 350 350 346 342 345 352 363 350 349 348 349 353 360 362 367 382 363 356 369 353 343 338 338 348 335
Wind_Speed
62 63 62 63 62 60 60 61 60 67 64 67 62 61 65 65 64 43 66 63 66 66 58 69 70 71 77 82 62 69 62 83 18 53 73 68 78 64 90 85 98 80 94 71 46 64 75 40 70 64 111 57 50 83
71 71 66 69 66 65 65 61 60 71 73 66 59 59 57 56 62 65 57 63 55 44 49 72 47 78 66 83 74 83 80 89 71 32 61 81 91 87 95 85 83 44 15 28 33 97 103 100 35 110 39 67 78 68
77 78 73 72 71 73 68 67 62 60 81 69 66 63 45 62 66 73 60 56 56 70 53 58 62 63 67 73 72 78 71 80 87 84 54 95 98 83 98 94 95 88 68 82 74 75 90 53 33 73 42 69 95 112
78 87 77 78 78 75 75 73 65 73 72 72 74 74 73 73 72 71 69 73 66 64 79 67 63 59 74 65 81 84 57 51 40 77 90 84 64 60 100 102 81 49 14 64 40 87 104 14 68 77 113 77 51 100
77 78 82 82 78 76 78 76 79 79 79 78 77 77 78 77 75 65 73 76 82 57 66 65 78 76 78 90 84 94 40 47 67 91 87 103 93 98 95 104 106 50 91 46 111 115 30 106 102 101 78 106 95 73
86 87 85 85 85 79 80 84 83 83 82 78 54 80 80 82 84 59 79 86 66 81 80 70 67 81 25 22 24 90 90 48 100 91 88 111 117 97 107 22 104 30 122 121 107 121 98 102 102 109 34 32 38 47
101 92 93 100 94 98 88 98 99 59 88 84 90 85 85 96 95 89 82 90 91 92 91 82 77 74 85 15 34 92 49 96 94 101 72 81 33 106 110 107 120 123 124 128 133 131 100 109 106 31 103 38 37 51
110 99 113 110 104 107 103 107 110 107 90 80 94 82 92 86 80 95 87 92 95 84 89 75 57 85 59 81 91 99 110 108 109 92 106 111 55 110 39 115 120 127 128 129 133 126 111 105 32 57 48 82 81 73
106 96 119 120 116 91 91 113 112 109 82 84 103 93 99 108 97 121 90 112 101 85 91 79 93 117 112 105 92 100 66 99 99 94 102 105 124 113 104 110 130 115 132 129 97 37 37 23 34 26 42 111 108 96
130 133 129 88 124 90 94 83 123 89 89 95 87 98 90 127 94 101 100 112 92 92 123 107 100 109 113 101 108 107 118 134 100 92 103 125 126 112 7 10 12 129 74 125 30 23 31 26 48 35 87 101 70 70
94 136 136 109 134 131 129 93 135 129 107 132 111 139 101 135 120 115 101 113 103 30 38 137 112 73 121 127 133 145 125 117 135 122 116 102 87 131 26 17 12 9 17 120 18 110 72 116 86 92 69 60 56 57
140 138 138 105 109 135 124 101 116 132 135 138 104 112 102 98 99 119 114 108 116 119 102 47 35 19 90 143 79 149 144 140 139 126 108 34 87 29 35 59 93 13 44 98 87 98 93 103 50 67 85 67 57 58
114 109 106 123 116 145 152 144 143 104 121 96 144 134 135 125 115 102 6 129 16 17 32 142 132 152 151 148 144 143 143 144 126 111 122 120 109 121 58 100 101 95 54 99 90 90 100 69 67 72 76 57 53 52
156 142 132 130 119 130 144 164 162 163 162 159 152 157 148 146 133 33 47 157 138 146 150 136 142 135 142 145 138 136 137 132 129 98 114 111 24 33 34 93 108 39 99 86 97 91 80 68 62 52 48 50 53 45
131 130 123 145 143 128 161 159 160 154 164 152 136 161 156 145 155 145 140 142 147 141 148 137 142 132 136 136 133 132 132 132 130 129 129 128 113 112 114 66 117 93 94 94 84 76 67 57 51 47 47 48 45 41
118 127 129 128 130 131 136 139 153 142 143 125 142 131 82 122 126 51 6 11 135 137 136 134 133 132 110 114 101 110 120 120 132 137 132 115 126 123 113 106 101 98 88 81 76 63 59 53 48 46 46 42 40 37
114 119 126 126 128 130 130 134 136 128 142 134 110 110 114 8 12 21 39 129 131 135 131 132 131 109 108 102 133 118 98 115 126 125 120 118 116 114 108 108 94 88 84 75 63 59 60 52 48 43 42 40 37 35
51 115 114 115 101 103 122 128 130 133 131 121 118 118 119 118 83 115 116 118 112 112 125 107 116 125 124 122 120 118 112 113 113 114 113 111 108 104 100 96 90 86 77 68 63 60 56 55 53 45 41 38 38 37
87 99 98 111 116 119 120 114 116 125 120 115 116 107 106 108 104 106 66 63 113 114 115 116 116 115 112 112 114 112 111 112 108 106 106 101 99 99 94 92 87 77 70 65 66 66 61 55 55 52 45 45 41 40
83 84 83 85 91 95 97 100 102 106 106 103 104 102 102 104 105 109 110 111 112 113 113 112 109 108 109 111 110 109 107 104 102 98 94 89 91 85 57 45 50 51 55 53 49 46 42 48 57 56 49 53 52 47
81 79 85 88 91 94 96 99 100 99 99 98 96 98 102 102 105 108 111 113 113 112 109 107 106 100 100 101 101 101 103 66 59 61 55 48 40 39 37 37 36 37 37 33 37 39 40 41 38 57 55 55 55 54
43 32 36 68 42 41 57 62 57 53 53 51 49 76 45 54 36 42 102 100 85 48 79 45 43 40 45 51 55 60 64 62 46 44 44 44 39 33 31 30 29 30 30 31 32 33 36 34 35 39 42 26 48 57
25 27 30 31 38 39 41 48 48 42 47 44 39 37 32 33 39 44 59 52 48 48 52 42 43 43 52 56 58 59 59 39 38 38 37 36 32 27 25 26 26 24 26 29 30 29 30 33 35 32 34 27 29 31
21 21 23 24 28 35 29 33 33 43 44 26 26 29 34 39 44 53 52 48 50 45 37 43 47 52 55 56 56 44 37 34 30 30 30 26 23 23 22 24 27 25 29 26 27 28 30 33 31 30 28 32 42 38
26 18 22 31 31 33 39 32 25 18 24 28 34 35 35 45 50 53 53 44 46 38 39 42 44 48 49 37 37 34 32 26 23 25 28 22 19 20 21 21 22 24 23 22 24 26 28 31 30 26 27 36 43 40
24 29 27 31 36 42 37 29 27 28 29 32 31 35 45 49 50 52 49 39 34 38 42 43 42 38 34 30 29 30 29 25 22 22 24 23 21 18 19 20 22 25 22 26 28 29 30 30 28 25 31 41 42 45
27 36 42 37 41 38 36 31 31 31 33 33 34 38 48 51 48 44 33 34 34 35 36 35 35 31 29 29 27 25 23 23 22 22 23 23 21 19 18 22 24 26 27 28 29 28 29 29 27 32 33 44 46 47
23 25 33 32 35 40 40 27 31 35 30 34 28 36 38 35 35 30 31 33 30 32 33 32 31 29 27 26 25 24 21 20 19 19 21 23 22 20 19 21 24 27 30 30 27 28 28 28 26 30 36 40 48 50
23 25 25 25 25 25 23 24 25 34 32 27 28 28 30 28 28 25 27 29 30 31 30 30 28 27 26 23 24 25 24 24 24 25 24 25 27 25 26 27 28 28 28 30 30 31 29 29 28 30 37 38 48 49
28 23 22 26 28 29 30 30 30 30 29 28 27 27 27 26 26 25 26 28 28 29 29 29 28 27 27 27 26 28 30 30 30 30 31 31 30 30 30 31 32 33 33 34 34 33 31 32 33 35 36 40 45 50
30 30 29 28 27 26 27 28 31 33 33 33 33 33 32 32 31 31 32 33 33 33 32 31 31 30 31 31 33 33 32 33 34 34 35 36 37 33 31 28 28 30 31 35 37 35 34 37 37 38 39 40 44 51
33 35 33 32 33 31 27 25 27 26 26 28 32 38 38 37 35 35 38 39 39 38 37 36 35 35 36 37 38 39 39 35 30 30 28 27 27 28 29 30 29 29 28 29 32 39 37 40 39 39 38 42 44 48
36 36 38 39 37 37 37 33 31 32 31 29 29 29 29 32 34 36 40 42 43 42 41 41 41 41 39 37 34 32 30 30 29 27 26 26 27 29 29 29 27 27 27 27 27 35 37 42 43 42 42 41 45 51
Wind_Direction
248 250 252 256 254 255 257 262 267 269 262 266 268 271 273 271 263 263 269 283 275 285 277 281 286 277 280 284 281 286 286 287 267 277 290 296 292 301 294 306 304 309 300 314 317 317 313 313 310 321 319 329 327 319
250 252 251 252 255 257 261 264 269 270 267 260 261 272 269 267 264 277 282 281 281 271 275 289 280 282 290 282 281 291 290 288 299 289 293 286 293 300 293 297 297 309 20 342 318 308 311 317 314 318 331 321 324 323
251 252 250 252 256 257 257 258 258 264 265 264 265 264 258 271 270 269 274 270 274 272 279 269 282 289 281 291 295 280 282 290 291 291 291 294 291 292 294 295 296 299 303 301 305 310 310 300 303 320 320 315 317 320
254 254 254 255 256 257 259 260 259 260 261 260 264 265 267 266 270 271 272 273 271 273 275 273 282 286 282 291 285 285 291 281 280 290 293 287 285 299 294 295 299 296 299 303 294 313 313 275 314 313 312 316 323 320
255 255 257 259 257 260 263 262 267 265 264 265 265 271 268 271 273 271 277 277 282 280 270 276 286 271 280 281 282 278 294 291 284 292 290 293 296 293 293 293 289 302 301 300 323 314 270 315 309 306 307 306 316 316
260 261 262 264 264 257 258 264 257 260 262 269 253 267 275 275 279 271 278 279 272 272 284 270 282 293 303 19 42 296 288 294 301 296 303 286 288 293 297 288 300 299 302 300 308 313 312 306 305 314 306 319 323 324
264 263 266 267 269 271 271 271 271 262 269 264 271 270 267 276 277 279 275 286 269 293 291 288 302 298 273 286 302 285 291 283 293 280 291 294 316 291 304 296 289 301 312 313 311 310 308 303 305 295 313 327 315 326
265 266 265 266 267 269 269 274 274 274 270 267 278 269 280 276 270 262 269 287 292 273 275 288 307 265 276 280 280 276 290 299 304 279 276 279 283 304 301 294 299 308 308 307 306 308 305 300 292 306 310 315 315 314
274 271 270 270 273 270 258 280 278 282 271 268 287 274 283 282 275 287 266 289 291 279 292 283 289 295 292 268 274 292 299 285 274 280 291 276 310 299 298 296 305 302 302 303 307 292 291 282 298 304 310 310 312 314
270 268 273 267 276 268 273 266 282 250 265 274 265 256 269 288 264 268 270 292 269 271 299 291 276 291 293 271 272 289 296 299 275 290 295 304 302 284 33 149 207 300 304 301 284 277 265 291 300 297 310 310 307 310
267 268 269 269 276 276 277 266 279 281 280 284 277 287 277 288 286 288 279 291 287 265 273 294 277 274 289 292 294 298 291 286 295 298 298 289 289 294 295 290 266 274 307 299 302 306 305 305 307 308 308 306 305 311
268 268 270 272 270 273 277 269 279 279 279 281 275 279 272 272 261 286 285 287 290 284 273 281 280 264 291 293 292 291 292 294 295 297 293 302 290 307 294 289 294 269 299 302 306 306 304 302 296 308 308 308 304 305
269 269 270 272 273 275 274 276 277 271 276 264 280 280 281 281 280 277 257 285 277 308 282 286 286 287 286 286 288 289 291 288 292 293 292 291 289 290 297 299 299 298 300 304 302 304 303 304 299 304 305 302 301 303
263 266 268 269 271 273 274 272 273 274 275 276 276 278 279 283 284 284 291 283 283 279 279 283 284 280 282 284 284 285 285 286 288 290 294 291 311 298 300 295 297 299 298 299 299 301 302 301 299 298 294 295 300 299
264 265 266 269 269 269 270 273 272 271 274 273 272 275 277 277 280 279 279 279 278 278 279 278 280 281 281 284 285 287 287 289 290 290 287 287 290 291 292 296 294 296 295 300 299 300 298 298 296 296 293 294 293 295
262 259 261 262 263 263 264 265 268 266 267 269 270 273 275 274 274 257 225 246 278 279 281 280 281 284 285 285 287 289 286 289 288 286 286 290 286 288 290 291 293 294 293 296 295 293 292 293 292 291 289 286 286 289
257 257 261 261 262 263 267 266 267 270 267 270 276 278 278 225 105 214 257 276 277 276 279 279 280 283 284 286 283 282 281 286 283 283 286 287 288 287 291 292 293 292 293 292 289 283 285 287 286 284 281 279 283 284
270 260 259 261 262 262 263 265 266 267 269 269 270 272 273 272 269 272 272 273 273 274 274 279 275 277 279 280 282 282 284 285 285 285 287 289 291 292 291 291 291 290 288 284 280 276 282 283 283 279 274 277 281 278
261 261 261 261 262 263 263 263 265 269 269 270 272 271 271 273 272 271 271 273 272 273 274 275 277 279 282 283 283 284 283 284 286 288 288 290 290 290 290 290 289 284 281 277 273 280 280 277 276 278 274 273 275 277
262 262 262 263 263 263 264 264 265 267 268 270 270 272 272 271 273 273 273 273 274 274 276 278 281 282 282 282 282 283 285 286 287 288 289 288 288 289 291 291 286 283 279 276 278 276 267 266 266 268 267 272 275 275
261 263 262 261 262 263 264 265 266 267 269 269 271 271 271 272 273 272 273 274 275 276 279 281 281 281 281 282 282 285 287 284 290 291 296 299 300 301 299 294 289 286 283 282 274 262 261 258 261 264 265 267 269 272
270 262 252 262 248 247 254 264 267 269 272 277 274 273 279 277 273 269 275 277 279 282 282 283 282 276 275 276 280 282 285 290 295 297 298 301 305 303 298 292 288 280 271 268 265 257 254 254 259 257 254 248 263 269
272 266 254 247 248 254 255 261 269 273 275 286 278 278 274 267 265 270 269 276 283 284 282 275 274 273 278 280 284 287 292 293 292 294 294 295 297 296 285 278 278 272 264 261 258 254 250 249 253 262 255 228 226 231
280 258 253 260 259 264 287 286 272 281 278 277 287 274 266 267 270 269 275 285 287 292 278 278 281 279 281 284 289 290 289 291 293 291 287 288 289 286 275 264 262 265 254 255 256 254 252 250 254 257 249 214 232 228
270 278 276 277 284 284 289 283 273 267 260 257 261 268 272 272 274 277 284 291 290 281 273 273 274 275 280 280 282 288 290 292 288 286 288 291 280 273 271 267 262 260 256 253 255 255 254 254 253 250 243 211 228 222
270 278 273 264 274 272 273 262 259 263 266 264 267 273 275 278 284 288 292 288 268 265 269 272 278 281 282 284 286 287 291 293 292 289 287 286 283 274 267 258 258 259 253 252 252 253 253 252 253 234 232 211 212 222
273 254 260 270 266 266 273 262 268 269 276 282 288 287 284 278 282 283 275 272 273 273 275 275 279 280 279 282 284 283 288 293 293 292 289 286 284 276 272 262 255 259 258 255 254 253 254 255 246 232 229 216 228 221
287 272 264 267 262 262 261 280 279 280 292 289 290 286 281 282 273 279 276 274 272 272 274 274 275 278 280 284 288 291 294 290 287 284 281 282 281 278 269 259 256 260 260 262 255 253 254 245 237 229 227 223 217 220
291 289 289 290 289 288 291 292 293 280 286 293 294 292 288 286 281 275 270 270 271 273 274 274 276 280 283 286 287 287 287 287 286 284 279 276 275 268 265 265 255 258 256 258 257 252 249 234 232 234 230 224 217 225
297 293 284 282 283 285 284 285 287 287 285 283 281 281 282 283 282 280 278 277 276 278 279 281 283 283 285 283 281 281 283 284 283 282 281 279 274 272 271 268 263 262 255 254 253 246 247 232 229 235 232 231 221 219
290 287 287 291 295 293 283 279 277 279 281 282 281 280 279 277 274 273 273 272 272 273 273 275 277 280 280 281 281 279 275 274 274 273 275 276 276 274 272 271 267 261 259 253 251 246 240 233 230 234 236 230 224 220
290 288 286 285 285 285 287 293 297 294 285 281 278 269 271 272 272 273 273 274 276 277 277 277 277 276 277 276 276 277 277 278 279 281 286 285 278 272 269 269 271 273 268 257 250 245 245 231 228 233 232 231 231 229
291 290 286 282 282 282 280 283 281 283 286 291 293 286 280 278 275 272 269 271 273 274 275 277 277 276 274 271 268 267 269 270 273 278 287 283 273 270 269 271 272 273 271 268 262 244 245 231 230 232 234 234 233 231